INTELSAT 33E DEB, 64400

Orbit data source: Space-Track

INTELSAT 33E DEB, 64400 is space debris in GEO originally from a launch on Wed, 24 Aug 2016 UTC launched from the French Guiana (FRGUI). Debris objects in space refer to the collection of defunct objects orbiting the Earth. Examples of debris include non-operational satellites, rocket bodies, and fragments generated from explosions, collisions, or faulty payload assembly.

Not visible in the next 10 days
Identifier
64400, 2016-053AE
Orbit
GEO
Country
Flag of USUS / ITSO
Related business
Manufacturer
Boeing/ES
Mission
Spacecraft
Bus & Motor
Unknown
Mass
Unknown
Launch date (UTC)
2016-08-24 (10 years ago)
Launch vehicle
Unknown
Launch site
French Guiana (FRGUI)
Object type
Payload
Rocket body
Debris
Shape & HBR
Unknown shape, 1.1 m
Radar Cross Section
RCS unknown

Expand to show TLE details & history
Last TLE update: 4 weeks ago

TLE from 4 weeks ago
0 INTELSAT 33E DEB
1 64400U 16053AE  26095.13460211 -.00000073  00000-0  00000-0 0  9990
2 64400   1.2934  81.5977 0506160 311.6663  44.7558  1.03337419  5409
Epoch: 2026-04-05T03:13Z
TLE epoch observation values (Epoch: 2026-04-05T03:13:49.622Z)
Latitude
-0.00001°
Longitude
-159.57501°
Altitude
33,516.59 km
Speed
3.215 km/s
True Right ascension
05h 29m 18s
True Declination
0° 00' 00"
Sunlit
Object was in daylight at epoch
Visualization orbit readout
Latitude
Unknown
Longitude
Unknown
Altitude
Unknown
Speed
Unknown
Apparent Right ascension
Unknown
Apparent Declination
Unknown
Sunlit
N/A
Visualization observer readout
Local Sidereal Time
00:07:58
Azimuth
Unknown
Elevation
Unknown
Doppler factor
Unknown
Orbital elements
Apogee altitude
37,041.442 km
Perigee altitude
32,857.753 km
Semi-major axis
41,327.735 km
Eccentricity
0.05062
Inclination
1.2934°
RAAN
81.5977°
Arg. of periapsis
311.6663°
True anomaly
49.02737°
Mean anomaly
44.7558°
Eccentric anomaly
46.87238°
Mean motion
0.25833 °/min
Orbital period
1,393.55 mins
BSTAR
0
Loading maneuver chart data...
Computing Atmospheric mass density...
Loading historical data...
Loading historical data...
Loading historical data...
Loading historical data...
Loading historical data...
Loading historical data...
Loading historical data...

Documentation

Showing up to 5 results
|